CW1663 Weather Reports


Display with metric or nautical units.
time (UTC)temp
F
wind
direction
speed
MPH
gust
MPH
rain 1hr
in
rain 24hr
in
rain mn
in
humidity
%
barometer
mb
20260903130804 70 214 7.0 13.0 0.01 0.01 0.01 87 1018.4
20260903125305 71 203 6.0 13.0 0.01 0.01 0.01 86 1018.3
20260903124804 71 243 8.0 13.0 0.01 0.01 0.01 86 1018.3
20260903124304 71 219 6.0 14.0 0.01 0.01 0.01 86 1018.2
20260903123804 71 205 5.0 12.0 0.01 0.01 0.01 87 1018.2
20260903123304 71 209 4.0 9.0 0.01 0.01 0.01 86 1018.2
20260903122804 71 209 3.0 12.0 0.00 0.00 0.00 86 1018.2
20260903122306 71 192 2.0 8.0 0.00 0.00 0.00 85 1018.2
20260903121804 71 198 4.0 8.0 0.00 0.00 0.00 85 1018.2
20260903120804 70 221 5.0 14.0 0.00 0.00 0.00 86 1018.2
20260903115804 70 224 5.0 13.0 0.00 0.00 0.00 86 1018.2
20260903114804 70 231 5.0 13.0 0.00 0.00 0.00 87 1018.2
20260903113804 70 255 6.0 9.0 0.00 0.00 0.00 87 1018.2
20260903112804 70 215 4.0 9.0 0.00 0.00 0.00 89 1018.1
20260903111804 69 243 6.0 12.0 0.00 0.01 0.00 89 1018.3
20260903111304 69 238 6.0 17.0 0.00 0.01 0.00 89 1018.3
20260903110804 69 201 5.0 13.0 0.00 0.01 0.00 89 1018.3
20260903105804 69 256 6.0 13.0 0.00 0.01 0.00 90 1018.2
20260903105306 69 220 4.0 8.0 0.00 0.01 0.00 91 1018.2
20260903104806 69 214 5.0 12.0 0.00 0.01 0.00 91 1018.2
20260903104304 68 236 3.0 10.0 0.00 0.01 0.00 92 1018.3
20260903103804 68 228 3.0 8.0 0.00 0.01 0.00 93 1018.3
20260903102305 67 239 5.0 12.0 0.00 0.01 0.00 92 1018.7
20260903095306 67 234 5.0 9.0 0.00 0.01 0.00 93 1018.7
20260903094805 67 251 5.0 12.0 0.00 0.01 0.00 93 1018.7
20260903093304 67 239 5.0 12.0 0.00 0.01 0.00 93 1018.5
20260903092804 67 246 6.0 13.0 0.00 0.01 0.00 93 1018.5
20260903092306 67 247 5.0 13.0 0.00 0.01 0.00 93 1018.4
20260903090304 67 217 7.0 12.0 0.00 0.01 0.00 94 1018.1
20260903084804 66 232 5.0 13.0 0.00 0.01 0.00 96 1018.0
20260903084304 66 232 5.0 13.0 0.00 0.01 0.00 96 1017.8
20260903083304 65 227 9.0 14.0 0.00 0.01 0.00 97 1017.7
20260903082306 65 230 5.0 10.0 0.00 0.01 0.00 97 1017.5
20260903081304 65 205 6.0 13.0 0.00 0.01 0.00 97 1017.5
20260903080804 64 236 7.0 14.0 0.00 0.01 0.00 97 1017.5
20260903075306 64 229 4.0 9.0 0.00 0.01 0.00 97 1017.4
20260903074804 64 210 6.0 12.0 0.00 0.01 0.00 97 1017.4
20260903073804 64 250 5.0 12.0 0.00 0.01 0.00 97 1017.5
20260903073304 64 214 5.0 13.0 0.00 0.01 0.00 97 1017.4
20260903072804 64 225 3.0 9.0 0.00 0.01 0.00 97 1017.4
20260903071804 64 222 5.0 9.0 0.00 0.01 0.00 97 1017.3
20260903064803 63 234 5.0 10.0 0.00 0.01 0.00 97 1017.2
20260903063304 63 207 6.0 13.0 0.00 0.01 0.00 97 1017.1
20260903062306 63 223 6.0 13.0 0.00 0.01 0.00 97 1017.1
20260903061804 63 232 6.0 12.0 0.00 0.01 0.00 97 1017.1
20260903060804 63 242 8.0 15.0 0.00 0.01 0.00 97 1017.2
20260903060304 63 244 6.0 15.0 0.00 0.01 0.00 97 1017.0
20260903055804 63 226 7.0 14.0 0.00 0.01 0.00 97 1017.0
20260903055306 63 247 5.0 12.0 0.00 0.01 0.00 97 1017.0
20260903054804 63 234 9.0 17.0 0.00 0.01 0.00 97 1017.0
20260903054304 63 245 5.0 12.0 0.00 0.01 0.00 97 1017.1
20260903052804 63 241 5.0 13.0 0.00 0.01 0.00 97 1017.1
20260903052307 63 236 6.0 13.0 0.00 0.01 0.00 97 1016.9
20260903050804 63 213 6.0 14.0 0.00 0.01 0.00 97 1016.9
20260903050304 63 239 6.0 12.0 0.00 0.01 0.00 97 1016.7
20260903045804 63 222 5.0 14.0 0.00 0.01 0.00 97 1016.7
20260903045306 63 237 5.0 12.0 0.00 0.01 0.00 97 1016.7
20260903044804 63 220 6.0 13.0 0.00 0.01 0.00 97 1016.7
20260903044304 63 212 6.0 12.0 0.00 0.01 0.00 97 1016.6
20260903043804 63 242 6.0 12.0 0.00 0.01 0.00 97 1016.6
20260903041304 63 223 8.0 20.0 0.00 0.01 0.00 97 1016.4
20260903035804 63 219 7.0 13.0 0.00 0.01 0.00 97 1016.6
20260903033304 63 243 9.0 16.0 0.00 0.01 0.00 97 1016.6
20260903032306 63 221 6.0 12.0 0.00 0.01 0.00 97 1016.4
20260903031804 63 233 6.0 16.0 0.00 0.01 0.00 97 1016.4
20260903031303 63 233 6.0 12.0 0.00 0.01 0.00 97 1016.7
20260903024804 63 193 4.0 14.0 0.00 0.01 0.00 97 1016.6
20260903023803 63 226 6.0 12.0 0.00 0.01 0.00 97 1016.8
20260903020804 63 219 6.0 15.0 0.00 0.01 0.00 97 1016.9
20260903014304 63 224 5.0 14.0 0.00 0.01 0.00 97 1017.1
20260903013804 63 219 5.0 13.0 0.00 0.01 0.00 97 1017.1
20260903013304 63 238 7.0 13.0 0.00 0.01 0.00 97 1017.0
20260903012804 63 232 5.0 12.0 0.00 0.01 0.00 97 1017.0
20260903011804 63 218 6.0 15.0 0.00 0.01 0.00 97 1017.2
20260903011304 63 236 5.0 15.0 0.00 0.01 0.00 97 1017.4
20260903010804 63 209 7.0 18.0 0.00 0.01 0.00 97 1017.4
20260903010304 63 216 7.0 15.0 0.00 0.01 0.00 97 1017.5
20260903003804 63 238 7.0 17.0 0.00 0.01 0.00 97 1017.2
20260903002306 63 207 5.0 12.0 0.00 0.01 0.00 97 1017.1
20260903001803 63 220 4.0 12.0 0.00 0.01 0.00 97 1017.1
20260903001304 63 226 5.0 14.0 0.00 0.01 0.00 97 1017.1
20260902235305 63 218 4.0 10.0 0.00 0.01 0.00 97 1017.4
20260902234304 63 244 5.0 12.0 0.00 0.01 0.00 97 1017.7
20260902233804 63 240 4.0 13.0 0.00 0.01 0.00 97 1017.7
20260902232306 63 230 3.0 9.0 0.00 0.01 0.00 97 1017.8
20260902231304 63 240 4.0 9.0 0.00 0.01 0.00 97 1017.9
20260902230813 63 268 5.0 12.0 0.00 0.01 0.00 97 1017.9
20260902230304 63 239 7.0 13.0 0.00 0.01 0.00 97 1017.6
20260902225306 63 226 5.0 12.0 0.00 0.01 0.01 97 1017.4
20260902224304 63 222 4.0 12.0 0.00 0.01 0.01 97 1017.8
20260902222306 63 238 5.0 14.0 0.00 0.01 0.01 97 1017.6
20260902221805 63 241 5.0 12.0 0.00 0.01 0.01 97 1017.6
20260902220304 63 223 7.0 16.0 0.00 0.01 0.01 97 1017.7
20260902215306 63 225 5.0 15.0 0.00 0.02 0.01 97 1017.7
20260902214304 63 238 6.0 20.0 0.00 0.02 0.01 97 1017.7
20260902213804 63 230 7.0 17.0 0.00 0.02 0.01 97 1017.7
20260902213304 63 220 6.0 13.0 0.00 0.02 0.01 97 1017.7
20260902212803 63 242 6.0 13.0 0.00 0.02 0.01 97 1017.7
20260902212306 63 226 6.0 17.0 0.00 0.02 0.01 97 1017.7
20260902211804 63 235 5.0 12.0 0.00 0.02 0.01 97 1017.7
20260902211304 63 234 8.0 16.0 0.00 0.02 0.01 97 1017.6
20260902210804 63 236 5.0 12.0 0.00 0.02 0.01 97 1017.6
20260902205306 63 224 7.0 15.0 0.00 0.02 0.01 97 1017.5
20260902204304 63 243 7.0 13.0 0.00 0.02 0.01 97 1017.7
20260902203804 63 241 8.0 16.0 0.00 0.02 0.01 97 1017.7
20260902203304 63 234 6.0 15.0 0.00 0.02 0.01 97 1017.5
20260902202804 63 229 7.0 14.0 0.00 0.02 0.01 97 1017.5
20260902201804 63 226 9.0 22.0 0.00 0.02 0.01 97 1017.5
20260902200804 63 222 7.0 18.0 0.00 0.02 0.01 97 1017.6
20260902200304 63 231 7.0 14.0 0.00 0.02 0.01 97 1017.6
20260902195306 63 230 7.0 20.0 0.00 0.02 0.01 97 1017.5
20260902193804 63 210 8.0 15.0 0.00 0.02 0.01 96 1017.4
20260902193304 63 216 4.0 12.0 0.00 0.02 0.01 96 1017.4
20260902192803 63 221 5.0 13.0 0.00 0.02 0.01 96 1017.4
20260902191304 62 206 4.0 9.0 0.00 0.02 0.01 96 1017.6
20260902190804 62 203 3.0 12.0 0.00 0.02 0.01 95 1017.6
20260902184804 62 222 5.0 12.0 0.00 0.02 0.01 95 1017.8
20260902183804 61 210 3.0 8.0 0.00 0.02 0.01 94 1017.7
20260902180804 61 204 4.0 12.0 0.00 0.02 0.01 93 1017.8
20260902175307 62 218 5.0 10.0 0.00 0.02 0.01 92 1018.0
20260902174804 61 205 4.0 10.0 0.00 0.02 0.01 92 1018.0
20260902174304 61 206 6.0 15.0 0.00 0.02 0.01 91 1018.1
20260902173803 61 183 3.0 8.0 0.00 0.02 0.01 91 1018.1
20260902173304 61 192 4.0 10.0 0.00 0.02 0.01 90 1018.2
20260902172804 62 207 4.0 8.0 0.00 0.02 0.01 90 1018.2
20260902172308 62 142 3.0 12.0 0.00 0.02 0.01 89 1018.2
20260902171804 62 222 3.0 12.0 0.00 0.02 0.01 89 1018.2
20260902170804 62 226 4.0 12.0 0.00 0.02 0.01 88 1018.3
20260902170304 62 189 5.0 13.0 0.00 0.02 0.01 87 1018.5
20260902165803 62 224 6.0 14.0 0.00 0.02 0.01 87 1018.5
20260902165308 63 253 7.0 14.0 0.00 0.02 0.01 86 1018.6
20260902164304 63 202 5.0 14.0 0.00 0.02 0.01 84 1018.6
20260902162307 64 201 9.0 20.0 0.00 0.02 0.01 81 1018.5
20260902160804 64 222 6.0 14.0 0.00 0.02 0.01 80 1018.8
20260902160304 64 213 6.0 14.0 0.00 0.02 0.01 79 1019.0
20260902155306 64 193 6.0 16.0 0.00 0.02 0.01 77 1018.9
20260902154304 65 211 7.0 17.0 0.00 0.02 0.01 75 1018.8
20260902153804 65 203 7.0 20.0 0.00 0.02 0.01 75 1018.8
20260902152307 66 206 5.0 16.0 0.00 0.02 0.01 73 1018.9
20260902151304 67 217 8.0 14.0 0.00 0.02 0.01 72 1018.8
20260902150304 66 204 8.0 21.0 0.00 0.02 0.01 74 1019.1
20260902145306 66 211 9.0 17.0 0.00 0.02 0.01 74 1019.2
20260902143803 66 231 7.0 16.0 0.00 0.02 0.01 75 1019.1
20260902143304 66 211 8.0 23.0 0.00 0.02 0.01 76 1019.3
20260902142804 66 191 6.0 17.0 0.00 0.02 0.01 78 1019.3
20260902140303 64 218 7.0 16.0 0.00 0.02 0.01 81 1019.4
20260902135804 64 224 7.0 14.0 0.00 0.02 0.01 82 1019.4
20260902135306 64 220 8.0 20.0 0.00 0.02 0.01 82 1019.5
20260902134304 64 196 5.0 13.0 0.00 0.02 0.01 82 1019.5
20260902132804 63 221 6.0 17.0 0.00 0.02 0.01 83 1019.7
20260902131304 63 235 8.0 16.0 0.00 0.02 0.01 83 1019.7